This is the latest recevied weather packets stored in our database for station/object K6LCM-13. If no packets are shown the sender has not sent any weather packets the latest 10 day(s).
| Time | Temp. | Humidity | Pressure | Rain* | Wind** | Luminosity | Snow |
|---|---|---|---|---|---|---|---|
| 1777610053 | 15.56° C | 89% | 1011.2 hPa | 0 mm | - | - | - |
| 1777609512 | 15.56° C | 88% | 1010.9 hPa | 0 mm | - | - | - |
| 1777608973 | 15.56° C | 88% | 1010.8 hPa | 0 mm | - | - | - |
| 1777608432 | 15.56° C | 87% | 1010.6 hPa | 0 mm | - | - | - |
| 1777607893 | 15.56° C | 86% | 1010.5 hPa | 0 mm | - | - | - |
| 1777607352 | 15.56° C | 86% | 1010.4 hPa | 0 mm | - | - | - |
| 1777606812 | 16.11° C | 85% | 1010.3 hPa | 0 mm | - | - | - |
| 1777606273 | 16.11° C | 84% | 1010.2 hPa | 0 mm | - | - | - |
| 1777605732 | 16.11° C | 83% | 1010.2 hPa | 0 mm | - | - | - |
| 1777605192 | 16.11° C | 82% | 1010.1 hPa | 0 mm | - | - | - |
| 1777604652 | 16.11° C | 82% | 1010 hPa | 0 mm | - | - | - |
| 1777604113 | 16.67° C | 80% | 1010.1 hPa | 0 mm | - | - | - |
| 1777603572 | 16.67° C | 79% | 1009.9 hPa | 0 mm | - | - | - |
| 1777603033 | 16.67° C | 77% | 1009.8 hPa | 0 mm | - | - | - |
| 1777602492 | 17.22° C | 75% | 1009.8 hPa | 0 mm | - | - | - |
| 1777601412 | 18.33° C | 72% | 1009.8 hPa | 0 mm | - | - | - |
| 1777600333 | 18.89° C | 73% | 1009.6 hPa | 0 mm | - | - | - |
| 1777599792 | 18.89° C | 72% | 1009.6 hPa | 0 mm | - | - | - |
| 1777599253 | 18.89° C | 71% | 1009.6 hPa | 0 mm | - | - | - |
| 1777598712 | 19.44° C | 72% | 1009.6 hPa | 0 mm | - | - | - |
| 1777598173 | 19.44° C | 72% | 1009.6 hPa | 0 mm | - | - | - |
| 1777597632 | 19.44° C | 73% | 1009.7 hPa | 0 mm | - | - | - |
| 1777597092 | 19.44° C | 72% | 1009.7 hPa | 0 mm | - | - | - |
| 1777596274 | 19.44° C | 75% | 1009.8 hPa | 0 mm | - | - | - |
| 1777595194 | 19.44° C | 77% | 1009.7 hPa | 0 mm | - | - | - |
* Rain latest hour (hover to see other rain measurements)
** Current wind speed in m/s (hover to see current wind gust speed)